Location: Bennemühlen
(52.5740°N, 9.7135°E)
Time: 13:34:53
(UTC+00:00)

Vanguard 2 - Pass Details

Date: 26 February 2026
Orbit: 553 x 2896 km, 32.9° (Epoch: 14 March)

Event Time Altitude Azimuth Distance (km) Brightness Sun altitude
Exits shadow 03:57:12 13° 201° (SSW) 2,910 10.1 -21.5°
Maximum altitude 03:58:57 14° 186° (S) 2,662 10.1 -21.3°
Drops below altitude 10° 04:02:04 10° 156° (SSE) 2,640 10.4 -20.8°
Sets 04:05:32 0° 130° (SE) 3,251 11.3 -20.3°
